When you browse on this site, cookies collect data to enhance your experience and personalize the content and advertising you see.
Visit our Privacy Policy to learn more. By continuing to use the site, you agree to this use of cookies and data.
  • In Romania
  • List of Countries
  • For 7 days
  • Water Temperature
  • Weather Map
  • Weather Widgets
  • user-avatar
    Login

    Hourly Weather Rawicz

    Today, 6 December, Friday

    Time Temperature Precipitation Wind Pressure Humidity
    00:00 -2°C° 0 mm 3 mps 754 mmHg 72%
    01:00 -2°C° 0 mm 3 mps 754 mmHg 71%
    02:00 -2°C° 0 mm 3 mps 754 mmHg 70%
    03:00 -2°C° 0 mm 3 mps 753 mmHg 69%
    04:00 -2°C° 0 mm 3 mps 753 mmHg 67%
    05:00 -3°C° 0 mm 4 mps 752 mmHg 66%
    06:00 -3°C° 0 mm 4 mps 752 mmHg 64%
    07:00 -2°C° 0 mm 4 mps 752 mmHg 63%
    08:00 -1°C° 0 mm 4 mps 752 mmHg 58%
    09:00 0°C° 0 mm 4 mps 752 mmHg 53%
    10:00 +1°C° 0 mm 5 mps 751 mmHg 48%
    11:00 +2°C° 0 mm 5 mps 751 mmHg 46%
    12:00 +3°C° 0 mm 5 mps 751 mmHg 43%
    13:00 +5°C° 0 mm 5 mps 751 mmHg 41%
    14:00 +2°C° 0 mm 5 mps 750 mmHg 45%
    15:00 +1°C° 0 mm 4 mps 750 mmHg 50%
    16:00 0°C° 0 mm 4 mps 749 mmHg 54%
    17:00 0°C° 0 mm 4 mps 749 mmHg 54%
    18:00 0°C° 0 mm 4 mps 749 mmHg 54%
    19:00 -1°C° 0 mm 4 mps 749 mmHg 53%
    20:00 0°C° 0 mm 4 mps 748 mmHg 53%
    21:00 0°C° 0 mm 4 mps 748 mmHg 53%
    22:00 0°C° 0 mm 4 mps 748 mmHg 53%
    23:00 0°C° 0 mm 4 mps 747 mmHg 54%

    Tomorrow, 7 December, Saturday

    Time Temperature Precipitation Wind Pressure Humidity
    00:00 0°C° 0 mm 4 mps 747 mmHg 56%
    01:00 0°C° 0 mm 4 mps 746 mmHg 58%
    02:00 +1°C° 0 mm 4 mps 746 mmHg 60%
    03:00 +1°C° 0 mm 4 mps 745 mmHg 63%
    04:00 +2°C° 0 mm 5 mps 745 mmHg 66%
    05:00 +2°C° 0 mm 5 mps 745 mmHg 71%
    06:00 +3°C° 0 mm 6 mps 745 mmHg 76%
    07:00 +3°C° 0 mm 6 mps 745 mmHg 81%
    08:00 +4°C° 0 mm 6 mps 745 mmHg 79%
    09:00 +4°C° 0 mm 6 mps 744 mmHg 78%
    10:00 +5°C° 0 mm 6 mps 744 mmHg 76%
    11:00 +5°C° 0.2 mm 7 mps 744 mmHg 80%
    12:00 +5°C° 0.2 mm 8 mps 744 mmHg 84%
    13:00 +5°C° 0.2 mm 8 mps 744 mmHg 87%
    14:00 +5°C° 0.5 mm 8 mps 745 mmHg 87%
    15:00 +5°C° 0.5 mm 7 mps 745 mmHg 86%
    16:00 +5°C° 0.5 mm 7 mps 745 mmHg 85%
    17:00 +5°C° 0.1 mm 7 mps 746 mmHg 84%
    18:00 +5°C° 0.1 mm 7 mps 746 mmHg 82%
    19:00 +5°C° 0.1 mm 7 mps 747 mmHg 80%
    20:00 +5°C° 0.2 mm 7 mps 747 mmHg 82%
    21:00 +5°C° 0.2 mm 7 mps 747 mmHg 84%
    22:00 +5°C° 0.2 mm 7 mps 747 mmHg 86%
    23:00 +5°C° 0.3 mm 7 mps 747 mmHg 87%

    Day after tomorrow, 8 December, Sunday

    Time Temperature Precipitation Wind Pressure Humidity
    00:00 +5°C° 0.3 mm 6 mps 748 mmHg 88%
    01:00 +5°C° 0.3 mm 6 mps 748 mmHg 88%
    02:00 +4°C° 0.1 mm 6 mps 748 mmHg 87%
    03:00 +4°C° 0.1 mm 6 mps 747 mmHg 86%
    04:00 +4°C° 0.1 mm 6 mps 747 mmHg 85%
    05:00 +4°C° 0 mm 6 mps 747 mmHg 84%
    06:00 +4°C° 0 mm 6 mps 747 mmHg 83%
    07:00 +5°C° 0 mm 5 mps 747 mmHg 82%
    08:00 +4°C° 0 mm 6 mps 747 mmHg 80%
    09:00 +5°C° 0 mm 6 mps 747 mmHg 77%
    10:00 +5°C° 0 mm 6 mps 747 mmHg 75%
    11:00 +5°C° 0 mm 6 mps 746 mmHg 72%
    12:00 +7°C° 0 mm 6 mps 745 mmHg 70%
    13:00 +7°C° 0 mm 6 mps 745 mmHg 67%
    14:00 +7°C° 0 mm 6 mps 744 mmHg 69%
    15:00 +7°C° 0 mm 6 mps 743 mmHg 71%
    16:00 +5°C° 0 mm 6 mps 743 mmHg 73%
    17:00 +7°C° 0.1 mm 6 mps 742 mmHg 75%
    18:00 +7°C° 0.1 mm 6 mps 742 mmHg 78%
    19:00 +7°C° 0.1 mm 6 mps 741 mmHg 81%
    20:00 +7°C° 0 mm 6 mps 741 mmHg 80%
    21:00 +7°C° 0 mm 6 mps 741 mmHg 79%
    22:00 +8°C° 0 mm 6 mps 741 mmHg 79%
    23:00 +8°C° 0.2 mm 6 mps 740 mmHg 80%

    9 December, Monday

    Time Temperature Precipitation Wind Pressure Humidity
    00:00 +7°C° 0.2 mm 6 mps 740 mmHg 81%
    01:00 +7°C° 0.2 mm 6 mps 740 mmHg 82%
    02:00 +7°C° 0.1 mm 5 mps 740 mmHg 81%
    03:00 +7°C° 0.1 mm 5 mps 739 mmHg 80%
    04:00 +6°C° 0.1 mm 5 mps 739 mmHg 79%
    05:00 +6°C° 0 mm 5 mps 739 mmHg 79%
    06:00 +5°C° 0 mm 5 mps 739 mmHg 78%
    07:00 +5°C° 0 mm 5 mps 739 mmHg 78%
    08:00 +5°C° 0 mm 5 mps 739 mmHg 78%
    09:00 +5°C° 0 mm 4 mps 739 mmHg 77%
    10:00 +5°C° 0 mm 4 mps 739 mmHg 77%
    11:00 +6°C° 0 mm 4 mps 738 mmHg 73%
    12:00 +7°C° 0 mm 5 mps 738 mmHg 69%
    13:00 +7°C° 0 mm 5 mps 737 mmHg 65%
    14:00 +7°C° 0 mm 5 mps 737 mmHg 67%
    15:00 +6°C° 0 mm 5 mps 737 mmHg 70%
    16:00 +5°C° 0 mm 5 mps 737 mmHg 72%
    17:00 +5°C° 0.1 mm 5 mps 737 mmHg 75%
    18:00 +5°C° 0.1 mm 5 mps 737 mmHg 78%
    19:00 +3°C° 0.1 mm 5 mps 737 mmHg 81%
    20:00 +3°C° 0 mm 5 mps 737 mmHg 82%
    21:00 +3°C° 0 mm 5 mps 737 mmHg 82%
    22:00 +3°C° 0 mm 5 mps 737 mmHg 82%
    23:00 +3°C° 0.1 mm 6 mps 737 mmHg 82%

    10 December, Tuesday

    Time Temperature Precipitation Wind Pressure Humidity
    00:00 +3°C° 0.1 mm 6 mps 737 mmHg 82%
    01:00 +3°C° 0.1 mm 7 mps 737 mmHg 82%
    02:00 +3°C° 0.2 mm 7 mps 738 mmHg 84%
    03:00 +3°C° 0.2 mm 7 mps 738 mmHg 87%
    04:00 +3°C° 0.2 mm 7 mps 739 mmHg 89%
    05:00 +3°C° 0.4 mm 7 mps 739 mmHg 87%
    06:00 +3°C° 0.4 mm 6 mps 740 mmHg 84%
    07:00 +3°C° 0.4 mm 6 mps 740 mmHg 82%
    08:00 +3°C° 0.1 mm 6 mps 741 mmHg 82%
    09:00 +3°C° 0.1 mm 7 mps 742 mmHg 83%
    10:00 +3°C° 0.1 mm 7 mps 744 mmHg 83%
    11:00 +3°C° 0.3 mm 7 mps 745 mmHg 83%
    12:00 +3°C° 0.3 mm 7 mps 746 mmHg 83%
    13:00 +2°C° 0.3 mm 7 mps 747 mmHg 84%
    14:00 +2°C° 0.4 mm 7 mps 748 mmHg 78%
    15:00 0°C° 0.4 mm 7 mps 749 mmHg 72%
    16:00 -1°C° 0.4 mm 7 mps 751 mmHg 67%
    17:00 -1°C° 0 mm 6 mps 752 mmHg 66%
    18:00 -1°C° 0 mm 5 mps 753 mmHg 66%
    19:00 -2°C° 0 mm 5 mps 754 mmHg 65%
    20:00 -2°C° 0 mm 4 mps 754 mmHg 68%
    21:00 -1°C° 0 mm 3 mps 755 mmHg 70%
    22:00 -2°C° 0 mm 3 mps 755 mmHg 73%
    23:00 -2°C° 0 mm 3 mps 755 mmHg 73%

    11 December, Wednesday

    Time Temperature Precipitation Wind Pressure Humidity
    00:00 -2°C° 0 mm 3 mps 755 mmHg 73%
    01:00 -2°C° 0 mm 2 mps 755 mmHg 74%
    02:00 -2°C° 0 mm 3 mps 754 mmHg 72%
    03:00 -2°C° 0 mm 3 mps 753 mmHg 71%
    04:00 -3°C° 0 mm 4 mps 753 mmHg 69%
    05:00 -2°C° 0 mm 4 mps 752 mmHg 65%
    06:00 -2°C° 0 mm 5 mps 751 mmHg 60%
    07:00 -3°C° 0 mm 6 mps 750 mmHg 56%
    08:00 -2°C° 0 mm 6 mps 750 mmHg 57%
    09:00 -2°C° 0 mm 6 mps 749 mmHg 59%
    10:00 -1°C° 0 mm 6 mps 749 mmHg 60%
    11:00 -1°C° 0.4 mm 6 mps 748 mmHg 72%
    12:00 0°C° 0.4 mm 5 mps 747 mmHg 83%
    13:00 -1°C° 0.4 mm 5 mps 746 mmHg 94%
    14:00 -1°C° 1 mm 5 mps 746 mmHg 95%
    15:00 -1°C° 1 mm 5 mps 746 mmHg 96%
    16:00 -1°C° 1 mm 5 mps 746 mmHg 96%
    17:00 0°C° 0.6 mm 5 mps 746 mmHg 95%
    18:00 0°C° 0.6 mm 5 mps 746 mmHg 94%
    19:00 0°C° 0.6 mm 4 mps 746 mmHg 93%
    20:00 0°C° 0.2 mm 4 mps 746 mmHg 92%
    21:00 0°C° 0.2 mm 4 mps 746 mmHg 90%
    22:00 +1°C° 0.2 mm 4 mps 747 mmHg 89%
    23:00 0°C° 0 mm 4 mps 746 mmHg 87%
    Show more